| time (UTC) | temp F | wind direction | speed knots | gust knots | rain 1hr in | rain 24hr in | rain mn in | humidity % | barometer mb |
| 20260510153318 | 66 | 350 | 0.0 | 0.9 | 0.00 | 0.00 | 0.00 | 74 | 1016.7 |
| 20260510152815 | 66 | 350 | 0.0 | 0.9 | 0.00 | 0.00 | 0.00 | 74 | 1016.7 |
| 20260510152311 | 66 | 338 | 0.0 | 2.6 | 0.00 | 0.00 | 0.00 | 75 | 1016.8 |
| 20260510151808 | 65 | 353 | 0.9 | 1.7 | 0.00 | 0.00 | 0.00 | 75 | 1017.0 |
| 20260510151306 | 65 | 284 | 0.0 | 2.6 | 0.00 | 0.00 | 0.00 | 75 | 1016.9 |
| 20260510150801 | 65 | 289 | 0.9 | 1.7 | 0.00 | 0.00 | 0.00 | 75 | 1016.7 |
| 20260510150257 | 66 | 50 | 0.0 | 0.9 | 0.00 | 0.00 | 0.00 | 73 | 1016.5 |
| 20260510145753 | 67 | 2 | 0.9 | 1.7 | 0.00 | 0.00 | 0.00 | 72 | 1016.5 |
| 20260510145250 | 67 | 243 | 0.9 | 1.7 | 0.00 | 0.00 | 0.00 | 71 | 1016.2 |
| 20260510144746 | 66 | 239 | 0.9 | 2.6 | 0.00 | 0.00 | 0.00 | 72 | 1015.6 |
| 20260510144244 | 67 | 174 | 1.7 | 2.6 | 0.00 | 0.00 | 0.00 | 71 | 1015.7 |
| 20260510143737 | 68 | 16 | 0.9 | 1.7 | 0.00 | 0.00 | 0.00 | 70 | 1015.9 |
| 20260510143234 | 68 | 284 | 0.0 | 0.9 | 0.00 | 0.00 | 0.00 | 72 | 1016.2 |
| 20260510142730 | 68 | 222 | 1.7 | 1.7 | 0.00 | 0.00 | 0.00 | 71 | 1016.3 |
| 20260510142227 | 68 | 197 | 0.9 | 1.7 | 0.00 | 0.00 | 0.00 | 72 | 1016.5 |
| 20260510141724 | 69 | 253 | 0.9 | 3.5 | 0.00 | 0.00 | 0.00 | 68 | 1016.2 |
| 20260510141223 | 67 | 248 | 1.7 | 3.5 | 0.00 | 0.00 | 0.00 | 71 | 1016.3 |
| 20260510140719 | 67 | 278 | 1.7 | 3.5 | 0.00 | 0.00 | 0.00 | 72 | 1016.2 |
| 20260510140219 | 66 | 205 | 0.9 | 3.5 | 0.00 | 0.00 | 0.00 | 73 | 1016.3 |
| 20260510135709 | 67 | 208 | 0.9 | 2.6 | 0.00 | 0.00 | 0.00 | 75 | 1016.2 |
| 20260510135205 | 67 | 262 | 1.7 | 3.5 | 0.00 | 0.00 | 0.00 | 71 | 1016.1 |
| 20260510134702 | 66 | 156 | 0.9 | 2.6 | 0.00 | 0.00 | 0.00 | 76 | 1016.3 |
| 20260510134159 | 65 | 215 | 0.9 | 1.7 | 0.00 | 0.00 | 0.00 | 76 | 1016.2 |
| 20260510133655 | 65 | 203 | 2.6 | 3.5 | 0.00 | 0.00 | 0.00 | 75 | 1016.2 |
| 20260510133151 | 65 | 194 | 1.7 | 1.7 | 0.00 | 0.00 | 0.00 | 75 | 1016.2 |
| 20260510132647 | 64 | 254 | 2.6 | 3.5 | 0.00 | 0.00 | 0.00 | 76 | 1016.2 |
| 20260510132145 | 64 | 247 | 2.6 | 2.6 | 0.00 | 0.00 | 0.00 | 76 | 1016.2 |
| 20260510131642 | 63 | 300 | 1.7 | 2.6 | 0.00 | 0.00 | 0.00 | 78 | 1016.0 |
| 20260510131140 | 63 | 254 | 0.9 | 3.5 | 0.00 | 0.00 | 0.00 | 80 | 1016.0 |
| 20260510130636 | 63 | 223 | 0.0 | 2.6 | 0.00 | 0.00 | 0.00 | 80 | 1015.9 |
| 20260510130133 | 63 | 283 | 1.7 | 2.6 | 0.00 | 0.00 | 0.00 | 78 | 1016.2 |
| 20260510125629 | 63 | 253 | 2.6 | 2.6 | 0.00 | 0.00 | 0.00 | 78 | 1016.0 |
| 20260510125126 | 63 | 147 | 0.0 | 0.0 | 0.00 | 0.00 | 0.00 | 78 | 1015.9 |
| 20260510124623 | 63 | 198 | 0.0 | 0.0 | 0.00 | 0.00 | 0.00 | 78 | 1015.9 |
| 20260510124119 | 62 | 190 | 0.0 | 1.7 | 0.00 | 0.00 | 0.00 | 82 | 1015.8 |
| 20260510123615 | 62 | 194 | 0.9 | 1.7 | 0.00 | 0.00 | 0.00 | 82 | 1015.7 |
| 20260510123111 | 62 | 252 | 0.9 | 1.7 | 0.00 | 0.00 | 0.00 | 80 | 1015.7 |
| 20260510122607 | 61 | 240 | 0.0 | 0.9 | 0.00 | 0.00 | 0.00 | 82 | 1015.6 |
| 20260510122103 | 60 | 181 | 0.0 | 0.0 | 0.00 | 0.00 | 0.00 | 83 | 1015.6 |
| 20260510121600 | 60 | 223 | 1.7 | 1.7 | 0.00 | 0.00 | 0.00 | 86 | 1015.6 |
| 20260510121057 | 58 | 259 | 0.9 | 0.9 | 0.00 | 0.00 | 0.00 | 91 | 1015.6 |
| 20260510120556 | 56 | 215 | 0.0 | 0.9 | 0.00 | 0.00 | 0.00 | 97 | 1015.6 |
| 20260510120055 | 55 | 261 | 0.0 | 0.0 | 0.00 | 0.00 | 0.00 | 99 | 1015.6 |
| 20260510115552 | 54 | 261 | 0.0 | 0.0 | 0.00 | 0.00 | 0.00 | 99 | 1015.5 |
| 20260510115050 | 53 | 261 | 0.0 | 0.0 | 0.00 | 0.00 | 0.00 | 99 | 1015.5 |
| 20260510114545 | 53 | 261 | 0.0 | 0.9 | 0.00 | 0.00 | 0.00 | 99 | 1015.4 |
| 20260510114042 | 52 | 292 | 0.0 | 0.0 | 0.00 | 0.00 | 0.00 | 99 | 1015.1 |
| 20260510113537 | 52 | 292 | 0.0 | 0.9 | 0.00 | 0.00 | 0.00 | 99 | 1015.2 |
| 20260510113035 | 51 | 292 | 0.0 | 0.0 | 0.00 | 0.00 | 0.00 | 99 | 1015.1 |
| 20260510112531 | 51 | 292 | 0.0 | 0.0 | 0.00 | 0.00 | 0.00 | 99 | 1015.0 |
| 20260510112028 | 51 | 258 | 0.0 | 0.0 | 0.00 | 0.00 | 0.00 | 99 | 1015.0 |
| 20260510111525 | 51 | 257 | 0.9 | 0.9 | 0.00 | 0.00 | 0.00 | 99 | 1015.0 |
| 20260510111020 | 50 | 257 | 0.0 | 0.0 | 0.00 | 0.00 | 0.00 | 99 | 1014.9 |
| 20260510110517 | 50 | 257 | 0.0 | 0.0 | 0.00 | 0.00 | 0.00 | 99 | 1014.7 |
| 20260510110013 | 49 | 257 | 0.0 | 0.0 | 0.00 | 0.00 | 0.00 | 99 | 1014.6 |
| 20260510105508 | 49 | 257 | 0.0 | 0.0 | 0.00 | 0.00 | 0.00 | 99 | 1014.4 |
| 20260510105003 | 49 | 257 | 0.0 | 0.0 | 0.00 | 0.00 | 0.00 | 99 | 1014.4 |
| 20260510104500 | 49 | 257 | 0.0 | 0.0 | 0.00 | 0.00 | 0.00 | 99 | 1014.5 |
| 20260510103956 | 50 | 257 | 0.0 | 0.9 | 0.00 | 0.00 | 0.00 | 99 | 1014.4 |
| 20260510103454 | 50 | 257 | 0.0 | 0.0 | 0.00 | 0.00 | 0.00 | 99 | 1014.3 |
| 20260510102949 | 50 | 257 | 0.0 | 0.9 | 0.00 | 0.00 | 0.00 | 99 | 1014.1 |
| 20260510102445 | 50 | 22 | 0.9 | 0.9 | 0.00 | 0.00 | 0.00 | 99 | 1014.0 |
| 20260510101942 | 50 | 28 | 0.0 | 0.9 | 0.00 | 0.00 | 0.00 | 99 | 1013.7 |
| 20260510101440 | 50 | 27 | 0.0 | 0.0 | 0.00 | 0.00 | 0.00 | 99 | 1013.8 |
| 20260510100938 | 50 | 27 | 0.0 | 0.9 | 0.00 | 0.00 | 0.00 | 99 | 1013.9 |
| 20260510100434 | 50 | 29 | 0.0 | 0.0 | 0.00 | 0.00 | 0.00 | 99 | 1014.0 |
| 20260510095931 | 49 | 29 | 0.9 | 0.9 | 0.00 | 0.00 | 0.00 | 99 | 1013.8 |
| 20260510095426 | 49 | 29 | 0.0 | 0.0 | 0.00 | 0.00 | 0.00 | 99 | 1014.0 |
| 20260510094925 | 49 | 29 | 0.0 | 0.9 | 0.00 | 0.00 | 0.00 | 99 | 1013.7 |
| 20260510094420 | 50 | 29 | 0.0 | 0.0 | 0.00 | 0.00 | 0.00 | 99 | 1013.5 |
| 20260510093917 | 50 | 29 | 0.0 | 0.0 | 0.00 | 0.00 | 0.00 | 99 | 1013.3 |
| 20260510093412 | 50 | 29 | 0.0 | 0.0 | 0.00 | 0.00 | 0.00 | 99 | 1013.4 |
| 20260510092910 | 50 | 29 | 0.0 | 0.0 | 0.00 | 0.00 | 0.00 | 99 | 1013.2 |
| 20260510092407 | 50 | 29 | 0.0 | 0.0 | 0.00 | 0.00 | 0.00 | 99 | 1013.3 |
| 20260510091906 | 50 | 29 | 0.0 | 0.0 | 0.00 | 0.00 | 0.00 | 99 | 1013.1 |
| 20260510091404 | 51 | 29 | 0.0 | 0.0 | 0.00 | 0.00 | 0.00 | 99 | 1013.1 |
| 20260510090900 | 51 | 325 | 0.0 | 0.9 | 0.00 | 0.00 | 0.00 | 99 | 1013.2 |
| 20260510090357 | 51 | 320 | 0.0 | 0.9 | 0.00 | 0.00 | 0.00 | 99 | 1013.0 |
| 20260510085852 | 51 | 63 | 0.0 | 0.9 | 0.00 | 0.00 | 0.00 | 99 | 1013.1 |
| 20260510085348 | 51 | 63 | 0.0 | 0.0 | 0.00 | 0.00 | 0.00 | 99 | 1013.0 |
| 20260510084843 | 51 | 63 | 0.0 | 0.9 | 0.00 | 0.00 | 0.00 | 99 | 1012.9 |
| 20260510084341 | 51 | 62 | 0.0 | 0.9 | 0.00 | 0.00 | 0.00 | 99 | 1013.3 |
| 20260510083838 | 51 | 62 | 0.0 | 0.0 | 0.00 | 0.00 | 0.00 | 99 | 1013.0 |
| 20260510083334 | 51 | 62 | 0.0 | 0.0 | 0.00 | 0.00 | 0.00 | 99 | 1013.1 |
| 20260510082830 | 51 | 62 | 0.0 | 0.0 | 0.00 | 0.00 | 0.00 | 99 | 1012.9 |
| 20260510082327 | 52 | 62 | 0.0 | 0.0 | 0.00 | 0.00 | 0.00 | 98 | 1013.0 |
| 20260510081826 | 52 | 62 | 0.0 | 0.0 | 0.00 | 0.00 | 0.00 | 98 | 1013.1 |
| 20260510081322 | 52 | 62 | 0.0 | 0.0 | 0.00 | 0.00 | 0.00 | 98 | 1013.0 |
| 20260510080818 | 52 | 62 | 0.0 | 0.0 | 0.00 | 0.00 | 0.00 | 98 | 1012.8 |
| 20260510080313 | 52 | 62 | 0.0 | 0.0 | 0.00 | 0.00 | 0.00 | 98 | 1012.8 |
| 20260510075810 | 52 | 61 | 0.0 | 0.0 | 0.00 | 0.00 | 0.00 | 98 | 1012.8 |
| 20260510075308 | 52 | 61 | 0.0 | 0.0 | 0.00 | 0.00 | 0.00 | 98 | 1012.6 |
| 20260510074805 | 52 | 39 | 0.0 | 0.0 | 0.00 | 0.00 | 0.00 | 98 | 1012.8 |
| 20260510074302 | 53 | 35 | 0.0 | 0.0 | 0.00 | 0.00 | 0.00 | 97 | 1012.7 |
| 20260510073757 | 52 | 35 | 0.0 | 0.0 | 0.00 | 0.00 | 0.00 | 97 | 1012.6 |
| 20260510073254 | 52 | 28 | 0.0 | 0.0 | 0.00 | 0.00 | 0.00 | 97 | 1012.6 |
| 20260510072749 | 53 | 27 | 0.0 | 0.0 | 0.00 | 0.00 | 0.00 | 97 | 1012.8 |
| 20260510072246 | 53 | 24 | 0.0 | 0.0 | 0.00 | 0.00 | 0.00 | 97 | 1013.0 |
| 20260510071742 | 53 | 10 | 0.0 | 0.0 | 0.00 | 0.00 | 0.00 | 96 | 1012.6 |
| 20260510071239 | 53 | 10 | 0.0 | 0.0 | 0.00 | 0.00 | 0.00 | 96 | 1012.9 |
| 20260510070738 | 53 | 10 | 0.0 | 0.0 | 0.00 | 0.00 | 0.00 | 95 | 1012.6 |
| 20260510070235 | 54 | 10 | 0.0 | 0.0 | 0.00 | 0.00 | 0.00 | 94 | 1012.5 |
| 20260510065734 | 54 | 10 | 0.0 | 0.9 | 0.00 | 0.00 | 0.00 | 94 | 1012.7 |
| 20260510065231 | 54 | 321 | 0.0 | 0.9 | 0.00 | 0.00 | 0.00 | 95 | 1012.5 |
| 20260510064728 | 54 | 325 | 0.0 | 0.0 | 0.00 | 0.00 | 0.00 | 96 | 1012.7 |
| 20260510064226 | 53 | 200 | 0.0 | 0.0 | 0.00 | 0.00 | 0.00 | 96 | 1012.5 |
| 20260510063722 | 53 | 218 | 0.9 | 1.7 | 0.00 | 0.00 | 0.00 | 96 | 1012.5 |
| 20260510063218 | 53 | 234 | 0.0 | 0.0 | 0.00 | 0.00 | 0.00 | 96 | 1012.4 |
| 20260510062715 | 54 | 225 | 0.0 | 0.0 | 0.00 | 0.00 | 0.00 | 95 | 1012.7 |
| 20260510062211 | 54 | 225 | 0.0 | 0.0 | 0.00 | 0.00 | 0.00 | 95 | 1012.7 |
| 20260510061706 | 54 | 211 | 0.0 | 0.0 | 0.00 | 0.00 | 0.00 | 95 | 1012.7 |
| 20260510061204 | 55 | 212 | 0.0 | 0.0 | 0.00 | 0.00 | 0.00 | 94 | 1012.7 |
| 20260510060700 | 54 | 222 | 0.0 | 1.7 | 0.00 | 0.00 | 0.00 | 95 | 1012.4 |
| 20260510060157 | 53 | 180 | 0.0 | 0.9 | 0.00 | 0.00 | 0.00 | 96 | 1012.7 |
| 20260510055653 | 54 | 181 | 0.0 | 0.9 | 0.00 | 0.00 | 0.00 | 96 | 1012.7 |
| 20260510055151 | 54 | 183 | 0.0 | 0.0 | 0.00 | 0.00 | 0.00 | 97 | 1012.7 |
| 20260510054647 | 53 | 183 | 0.0 | 0.0 | 0.00 | 0.00 | 0.00 | 97 | 1012.6 |
| 20260510054143 | 53 | 183 | 0.0 | 0.0 | 0.00 | 0.00 | 0.00 | 97 | 1012.9 |
| 20260510053641 | 54 | 183 | 0.0 | 0.0 | 0.00 | 0.00 | 0.00 | 96 | 1012.8 |
| 20260510053138 | 54 | 183 | 0.0 | 0.0 | 0.00 | 0.00 | 0.00 | 96 | 1012.8 |
| 20260510052635 | 54 | 183 | 0.0 | 0.0 | 0.00 | 0.00 | 0.00 | 96 | 1012.7 |
| 20260510052131 | 54 | 183 | 0.0 | 0.0 | 0.00 | 0.00 | 0.00 | 96 | 1012.8 |
| 20260510051626 | 54 | 183 | 0.0 | 0.0 | 0.00 | 0.00 | 0.00 | 95 | 1012.7 |
| 20260510051123 | 54 | 183 | 0.0 | 0.0 | 0.00 | 0.00 | 0.00 | 95 | 1012.8 |
| 20260510050621 | 54 | 183 | 0.0 | 0.0 | 0.00 | 0.00 | 0.00 | 95 | 1012.8 |
| 20260510050118 | 55 | 183 | 0.0 | 0.0 | 0.00 | 0.00 | 0.00 | 95 | 1012.8 |
| 20260510045615 | 55 | 183 | 0.0 | 0.0 | 0.00 | 0.00 | 0.00 | 94 | 1012.9 |
| 20260510045111 | 55 | 183 | 0.0 | 0.9 | 0.00 | 0.00 | 0.00 | 93 | 1012.9 |
| 20260510044607 | 55 | 183 | 0.9 | 0.9 | 0.00 | 0.00 | 0.00 | 93 | 1012.9 |
| 20260510044105 | 56 | 201 | 0.0 | 0.0 | 0.00 | 0.00 | 0.00 | 91 | 1013.2 |
| 20260510043600 | 58 | 201 | 0.0 | 0.9 | 0.00 | 0.00 | 0.00 | 88 | 1013.0 |
| 20260510043056 | 57 | 207 | 1.7 | 1.7 | 0.00 | 0.00 | 0.00 | 88 | 1012.9 |
| 20260510042555 | 56 | 182 | 0.9 | 1.7 | 0.00 | 0.00 | 0.00 | 90 | 1012.9 |
| 20260510042051 | 56 | 188 | 0.0 | 0.9 | 0.00 | 0.00 | 0.00 | 92 | 1013.0 |
| 20260510041548 | 55 | 171 | 0.0 | 0.0 | 0.00 | 0.00 | 0.00 | 94 | 1013.2 |
| 20260510041045 | 54 | 171 | 0.9 | 0.9 | 0.00 | 0.00 | 0.00 | 95 | 1013.0 |
| 20260510040542 | 55 | 171 | 0.9 | 0.9 | 0.00 | 0.00 | 0.00 | 95 | 1012.9 |
| 20260510040038 | 55 | 172 | 0.0 | 0.0 | 0.00 | 0.00 | 0.00 | 94 | 1013.0 |
| 20260510035534 | 55 | 172 | 0.0 | 0.0 | 0.00 | 0.00 | 0.00 | 94 | 1013.0 |
| 20260510035033 | 55 | 172 | 0.0 | 0.0 | 0.00 | 0.00 | 0.00 | 94 | 1013.1 |
| 20260510034533 | 55 | 172 | 0.0 | 0.0 | 0.00 | 0.00 | 0.00 | 93 | 1013.0 |
| 20260510034029 | 55 | 172 | 0.0 | 0.0 | 0.00 | 0.00 | 0.00 | 93 | 1013.0 |
| 20260510033524 | 55 | 173 | 0.0 | 0.9 | 0.00 | 0.00 | 0.00 | 92 | 1012.9 |
| 20260510033023 | 55 | 206 | 0.0 | 1.7 | 0.00 | 0.00 | 0.00 | 93 | 1013.1 |
| 20260510032519 | 55 | 134 | 0.0 | 0.0 | 0.00 | 0.00 | 0.00 | 94 | 1012.9 |
| 20260510032014 | 55 | 134 | 0.0 | 0.0 | 0.00 | 0.00 | 0.00 | 94 | 1012.9 |
| 20260510031510 | 55 | 134 | 0.0 | 0.0 | 0.00 | 0.00 | 0.00 | 94 | 1012.9 |
| 20260510031006 | 55 | 134 | 0.0 | 0.0 | 0.00 | 0.00 | 0.00 | 94 | 1012.7 |
| 20260510030502 | 55 | 134 | 0.0 | 0.0 | 0.00 | 0.00 | 0.00 | 94 | 1012.9 |
| 20260510025959 | 55 | 134 | 0.0 | 0.0 | 0.00 | 0.00 | 0.00 | 93 | 1012.9 |
| 20260510025456 | 55 | 134 | 0.0 | 0.0 | 0.00 | 0.00 | 0.00 | 93 | 1012.7 |
| 20260510024953 | 55 | 134 | 0.0 | 0.0 | 0.00 | 0.00 | 0.00 | 93 | 1012.8 |
| 20260510024450 | 55 | 134 | 0.0 | 0.0 | 0.00 | 0.00 | 0.00 | 93 | 1012.7 |
| 20260510023945 | 55 | 134 | 0.0 | 0.0 | 0.00 | 0.00 | 0.00 | 93 | 1012.5 |
| 20260510023442 | 55 | 134 | 0.0 | 0.0 | 0.00 | 0.00 | 0.00 | 92 | 1012.5 |
| 20260510022939 | 56 | 134 | 0.0 | 0.0 | 0.00 | 0.00 | 0.00 | 92 | 1012.5 |
| 20260510022438 | 55 | 134 | 0.0 | 0.0 | 0.00 | 0.00 | 0.00 | 92 | 1012.1 |
| 20260510021937 | 56 | 134 | 0.0 | 0.0 | 0.00 | 0.00 | 0.00 | 92 | 1012.2 |
| 20260510021435 | 56 | 134 | 0.0 | 0.0 | 0.00 | 0.00 | 0.00 | 91 | 1012.2 |
| 20260510020932 | 56 | 134 | 0.0 | 0.0 | 0.00 | 0.00 | 0.00 | 91 | 1012.2 |
| 20260510020426 | 56 | 134 | 0.0 | 0.0 | 0.00 | 0.00 | 0.00 | 90 | 1012.1 |
| 20260510015922 | 57 | 134 | 0.0 | 0.0 | 0.00 | 0.00 | 0.00 | 89 | 1012.2 |
| 20260510015419 | 57 | 134 | 0.0 | 0.0 | 0.00 | 0.00 | 0.00 | 89 | 1012.0 |
| 20260510014913 | 57 | 134 | 0.0 | 0.0 | 0.00 | 0.00 | 0.00 | 89 | 1011.9 |
| 20260510014411 | 56 | 134 | 0.0 | 0.0 | 0.00 | 0.00 | 0.00 | 89 | 1011.9 |
| 20260510013908 | 57 | 134 | 0.0 | 0.0 | 0.00 | 0.00 | 0.00 | 88 | 1011.8 |
| 20260510013403 | 58 | 134 | 0.0 | 0.0 | 0.00 | 0.00 | 0.00 | 87 | 1011.7 |
| 20260510012858 | 58 | 134 | 0.0 | 0.0 | 0.00 | 0.00 | 0.00 | 86 | 1011.5 |
| 20260510012353 | 58 | 134 | 0.0 | 0.0 | 0.00 | 0.00 | 0.00 | 85 | 1011.3 |
| 20260510011848 | 59 | 134 | 0.0 | 0.0 | 0.00 | 0.00 | 0.00 | 84 | 1011.3 |
| 20260510011344 | 60 | 134 | 0.0 | 0.0 | 0.00 | 0.00 | 0.00 | 82 | 1011.2 |
| 20260510010840 | 62 | 134 | 0.0 | 0.0 | 0.00 | 0.00 | 0.00 | 79 | 1011.2 |
| 20260510010338 | 62 | 134 | 0.0 | 1.7 | 0.00 | 0.00 | 0.00 | 76 | 1011.0 |
| 20260510005834 | 62 | 134 | 0.9 | 1.7 | 0.00 | 0.00 | 0.00 | 78 | 1011.1 |
| 20260510005330 | 61 | 133 | 0.0 | 0.9 | 0.00 | 0.00 | 0.00 | 79 | 1010.9 |
| 20260510004828 | 62 | 133 | 0.0 | 0.9 | 0.00 | 0.00 | 0.00 | 77 | 1010.9 |
| 20260510004326 | 62 | 202 | 0.0 | 0.0 | 0.00 | 0.00 | 0.00 | 78 | 1010.9 |
| 20260510003823 | 64 | 202 | 0.0 | 0.9 | 0.00 | 0.00 | 0.00 | 73 | 1010.8 |
| 20260510003320 | 65 | 203 | 0.0 | 0.9 | 0.00 | 0.00 | 0.00 | 72 | 1010.8 |
| 20260510002818 | 65 | 186 | 0.0 | 0.0 | 0.00 | 0.00 | 0.00 | 69 | 1010.7 |
| 20260510002316 | 66 | 214 | 0.9 | 0.9 | 0.00 | 0.00 | 0.00 | 68 | 1010.8 |
| 20260510001812 | 66 | 209 | 1.7 | 1.7 | 0.00 | 0.00 | 0.00 | 67 | 1010.7 |
| 20260510001311 | 67 | 212 | 1.7 | 5.2 | 0.00 | 0.00 | 0.00 | 66 | 1010.7 |
| 20260510000806 | 67 | 169 | 1.7 | 3.5 | 0.00 | 0.00 | 0.00 | 65 | 1010.5 |
| 20260510000304 | 68 | 239 | 1.7 | 3.5 | 0.00 | 0.00 | 0.00 | 65 | 1010.5 |
| 20260509235801 | 68 | 210 | 1.7 | 2.6 | 0.00 | 0.00 | 0.00 | 64 | 1010.5 |
| 20260509235257 | 68 | 234 | 0.9 | 1.7 | 0.00 | 0.00 | 0.00 | 64 | 1010.4 |
| 20260509234753 | 69 | 212 | 1.7 | 3.5 | 0.00 | 0.00 | 0.00 | 62 | 1010.4 |
| 20260509234250 | 69 | 267 | 4.3 | 5.2 | 0.00 | 0.00 | 0.00 | 62 | 1010.3 |
| 20260509233749 | 69 | 203 | 4.3 | 6.1 | 0.00 | 0.00 | 0.00 | 61 | 1010.5 |
| 20260509233246 | 69 | 215 | 3.5 | 3.5 | 0.00 | 0.00 | 0.00 | 61 | 1010.2 |
| 20260509232741 | 70 | 229 | 0.9 | 2.6 | 0.00 | 0.00 | 0.00 | 61 | 1010.3 |
| 20260509232239 | 70 | 151 | 3.5 | 7.0 | 0.00 | 0.00 | 0.00 | 60 | 1010.4 |
| 20260509231735 | 70 | 231 | 1.7 | 7.0 | 0.00 | 0.00 | 0.00 | 59 | 1010.2 |
| 20260509231232 | 71 | 220 | 1.7 | 6.1 | 0.00 | 0.00 | 0.00 | 60 | 1010.2 |
| 20260509230730 | 71 | 182 | 2.6 | 6.1 | 0.00 | 0.00 | 0.00 | 59 | 1010.3 |
| 20260509230227 | 71 | 211 | 5.2 | 7.0 | 0.00 | 0.00 | 0.00 | 57 | 1010.4 |
| 20260509225722 | 71 | 212 | 1.7 | 3.5 | 0.00 | 0.00 | 0.00 | 59 | 1010.4 |
| 20260509225218 | 72 | 242 | 2.6 | 3.5 | 0.00 | 0.00 | 0.00 | 57 | 1010.2 |
| 20260509224714 | 71 | 272 | 2.6 | 3.5 | 0.00 | 0.00 | 0.00 | 57 | 1010.4 |
| 20260509224211 | 72 | 235 | 2.6 | 5.2 | 0.00 | 0.00 | 0.00 | 56 | 1010.3 |
| 20260509223708 | 72 | 250 | 0.9 | 2.6 | 0.00 | 0.00 | 0.00 | 57 | 1010.5 |
| 20260509223205 | 72 | 225 | 2.6 | 3.5 | 0.00 | 0.00 | 0.00 | 58 | 1010.3 |
| 20260509222702 | 72 | 260 | 3.5 | 6.1 | 0.00 | 0.00 | 0.00 | 58 | 1010.3 |
| 20260509222157 | 72 | 219 | 3.5 | 3.5 | 0.00 | 0.00 | 0.00 | 60 | 1010.3 |
| 20260509221653 | 72 | 261 | 0.0 | 3.5 | 0.00 | 0.00 | 0.00 | 57 | 1010.2 |
| 20260509221149 | 71 | 223 | 2.6 | 7.0 | 0.00 | 0.00 | 0.00 | 57 | 1010.5 |
| 20260509220646 | 72 | 257 | 3.5 | 5.2 | 0.00 | 0.00 | 0.00 | 57 | 1010.3 |
| 20260509220142 | 71 | 222 | 1.7 | 5.2 | 0.00 | 0.00 | 0.00 | 60 | 1010.4 |
| 20260509215638 | 71 | 240 | 4.3 | 8.7 | 0.00 | 0.00 | 0.00 | 57 | 1010.4 |
| 20260509215134 | 71 | 249 | 3.5 | 6.1 | 0.00 | 0.00 | 0.00 | 58 | 1010.5 |
| 20260509214632 | 70 | 253 | 1.7 | 7.0 | 0.00 | 0.00 | 0.00 | 61 | 1010.6 |
| 20260509214128 | 71 | 269 | 5.2 | 7.0 | 0.00 | 0.00 | 0.00 | 58 | 1010.6 |
| 20260509213625 | 70 | 244 | 2.6 | 2.6 | 0.00 | 0.00 | 0.00 | 60 | 1010.7 |
| 20260509213121 | 70 | 232 | 1.7 | 3.5 | 0.00 | 0.00 | 0.00 | 66 | 1010.6 |
| 20260509212619 | 72 | 221 | 3.5 | 6.1 | 0.00 | 0.00 | 0.00 | 59 | 1010.5 |
| 20260509212115 | 72 | 227 | 4.3 | 5.2 | 0.00 | 0.00 | 0.00 | 58 | 1010.7 |
| 20260509211611 | 71 | 248 | 3.5 | 7.8 | 0.00 | 0.00 | 0.00 | 59 | 1010.6 |
| 20260509211108 | 72 | 211 | 3.5 | 7.8 | 0.00 | 0.00 | 0.00 | 62 | 1010.7 |
| 20260509210605 | 72 | 266 | 6.1 | 8.7 | 0.00 | 0.00 | 0.00 | 56 | 1010.6 |
| 20260509205601 | 71 | 234 | 0.9 | 2.6 | 0.00 | 0.00 | 0.00 | 60 | 1010.7 |
| 20260509205057 | 72 | 240 | 2.6 | 7.0 | 0.00 | 0.00 | 0.00 | 61 | 1010.8 |
| 20260509204553 | 72 | 249 | 0.9 | 2.6 | 0.00 | 0.00 | 0.00 | 57 | 1010.6 |
| 20260509204050 | 73 | 235 | 3.5 | 3.5 | 0.00 | 0.00 | 0.00 | 58 | 1010.6 |
| 20260509203546 | 70 | 282 | 0.9 | 1.7 | 0.00 | 0.00 | 0.00 | 64 | 1010.5 |
| 20260509203044 | 71 | 222 | 1.7 | 3.5 | 0.00 | 0.00 | 0.00 | 63 | 1010.7 |
| 20260509202539 | 69 | 221 | 3.5 | 7.0 | 0.00 | 0.00 | 0.00 | 64 | 1010.6 |
| 20260509202035 | 69 | 229 | 2.6 | 3.5 | 0.00 | 0.00 | 0.00 | 66 | 1010.7 |
| 20260509201530 | 70 | 185 | 3.5 | 3.5 | 0.00 | 0.00 | 0.00 | 65 | 1010.8 |
| 20260509201028 | 70 | 192 | 2.6 | 3.5 | 0.00 | 0.00 | 0.00 | 64 | 1010.8 |
| 20260509200527 | 69 | 156 | 3.5 | 6.1 | 0.00 | 0.00 | 0.00 | 65 | 1010.9 |
| 20260509200024 | 68 | 211 | 2.6 | 2.6 | 0.00 | 0.00 | 0.00 | 65 | 1011.0 |
| 20260509195520 | 68 | 205 | 1.7 | 1.7 | 0.00 | 0.00 | 0.00 | 68 | 1011.0 |
| 20260509195019 | 67 | 214 | 1.7 | 2.6 | 0.00 | 0.00 | 0.00 | 67 | 1011.0 |
| 20260509194514 | 67 | 213 | 3.5 | 5.2 | 0.00 | 0.00 | 0.00 | 66 | 1011.1 |
| 20260509194013 | 68 | 196 | 4.3 | 5.2 | 0.00 | 0.00 | 0.00 | 65 | 1011.1 |
| 20260509193512 | 68 | 252 | 4.3 | 6.1 | 0.00 | 0.00 | 0.00 | 63 | 1011.1 |
| 20260509193009 | 68 | 179 | 2.6 | 5.2 | 0.00 | 0.00 | 0.00 | 66 | 1011.0 |
| 20260509192505 | 68 | 223 | 0.0 | 5.2 | 0.00 | 0.00 | 0.00 | 65 | 1011.1 |
| 20260509192000 | 68 | 238 | 2.6 | 7.8 | 0.00 | 0.00 | 0.00 | 67 | 1011.2 |
| 20260509191455 | 69 | 259 | 2.6 | 5.2 | 0.00 | 0.00 | 0.00 | 62 | 1011.3 |
| 20260509190951 | 70 | 234 | 2.6 | 7.0 | 0.00 | 0.00 | 0.00 | 61 | 1011.2 |
| 20260509190449 | 70 | 243 | 2.6 | 7.0 | 0.00 | 0.00 | 0.00 | 60 | 1011.0 |
| 20260509185947 | 70 | 260 | 2.6 | 5.2 | 0.00 | 0.00 | 0.00 | 61 | 1011.1 |
| 20260509185444 | 70 | 233 | 0.9 | 2.6 | 0.00 | 0.00 | 0.00 | 64 | 1011.1 |
| 20260509184940 | 70 | 233 | 4.3 | 7.8 | 0.00 | 0.00 | 0.00 | 62 | 1011.2 |
| 20260509184439 | 69 | 213 | 5.2 | 8.7 | 0.00 | 0.00 | 0.00 | 62 | 1011.2 |
| 20260509183935 | 69 | 252 | 4.3 | 9.6 | 0.00 | 0.00 | 0.00 | 63 | 1011.2 |
| 20260509183435 | 70 | 199 | 6.1 | 7.8 | 0.00 | 0.00 | 0.00 | 61 | 1011.0 |
| 20260509182931 | 68 | 195 | 3.5 | 7.8 | 0.00 | 0.00 | 0.00 | 68 | 1011.1 |
| 20260509182428 | 68 | 199 | 1.7 | 7.8 | 0.00 | 0.00 | 0.00 | 65 | 1011.0 |
| 20260509181925 | 68 | 214 | 7.0 | 7.8 | 0.00 | 0.00 | 0.00 | 67 | 1011.0 |
| 20260509181423 | 67 | 223 | 0.9 | 5.2 | 0.00 | 0.00 | 0.00 | 71 | 1011.0 |
| 20260509180920 | 67 | 201 | 3.5 | 3.5 | 0.00 | 0.00 | 0.00 | 66 | 1010.9 |
| 20260509180415 | 68 | 263 | 2.6 | 6.1 | 0.00 | 0.00 | 0.00 | 63 | 1011.1 |
| 20260509175913 | 68 | 244 | 2.6 | 5.2 | 0.00 | 0.00 | 0.00 | 63 | 1011.2 |
| 20260509175409 | 68 | 192 | 5.2 | 8.7 | 0.00 | 0.00 | 0.00 | 67 | 1011.2 |
| 20260509174905 | 67 | 250 | 3.5 | 6.1 | 0.00 | 0.00 | 0.00 | 65 | 1011.3 |
| 20260509174401 | 67 | 265 | 7.0 | 8.7 | 0.00 | 0.00 | 0.00 | 64 | 1011.5 |
| 20260509173858 | 66 | 234 | 5.2 | 7.8 | 0.00 | 0.00 | 0.00 | 65 | 1011.4 |
| 20260509173357 | 66 | 177 | 4.3 | 7.8 | 0.00 | 0.00 | 0.00 | 71 | 1011.4 |
| 20260509172854 | 65 | 195 | 3.5 | 7.0 | 0.00 | 0.00 | 0.00 | 68 | 1011.2 |
| 20260509172351 | 64 | 179 | 1.7 | 6.1 | 0.00 | 0.00 | 0.00 | 71 | 1011.3 |
| 20260509171847 | 64 | 250 | 5.2 | 9.6 | 0.00 | 0.00 | 0.00 | 69 | 1011.5 |
| 20260509171343 | 64 | 235 | 2.6 | 6.1 | 0.00 | 0.00 | 0.00 | 69 | 1011.6 |
| 20260509170840 | 62 | 205 | 1.7 | 2.6 | 0.00 | 0.00 | 0.00 | 76 | 1011.5 |
| 20260509170335 | 62 | 201 | 1.7 | 2.6 | 0.00 | 0.00 | 0.00 | 76 | 1011.8 |
| 20260509165830 | 61 | 245 | 2.6 | 3.5 | 0.00 | 0.00 | 0.00 | 72 | 1011.9 |
| 20260509165324 | 61 | 243 | 3.5 | 5.2 | 0.00 | 0.00 | 0.00 | 72 | 1011.8 |
| 20260509164821 | 61 | 219 | 1.7 | 3.5 | 0.00 | 0.00 | 0.00 | 72 | 1012.0 |
| 20260509164317 | 61 | 168 | 1.7 | 3.5 | 0.00 | 0.00 | 0.00 | 70 | 1012.1 |
| 20260509163814 | 61 | 226 | 0.0 | 0.9 | 0.00 | 0.00 | 0.00 | 72 | 1012.2 |
| 20260509163311 | 61 | 247 | 0.9 | 1.7 | 0.00 | 0.00 | 0.00 | 72 | 1012.1 |
| 20260509162810 | 61 | 247 | 0.0 | 2.6 | 0.00 | 0.00 | 0.00 | 73 | 1012.3 |
| 20260509162308 | 61 | 245 | 0.0 | 0.9 | 0.00 | 0.00 | 0.00 | 71 | 1012.0 |
| 20260509161805 | 60 | 245 | 0.9 | 1.7 | 0.00 | 0.00 | 0.00 | 72 | 1012.1 |
| 20260509161301 | 60 | 143 | 1.7 | 1.7 | 0.00 | 0.00 | 0.00 | 72 | 1012.1 |
| 20260509160756 | 61 | 195 | 1.7 | 2.6 | 0.00 | 0.00 | 0.00 | 69 | 1012.0 |
| 20260509160253 | 61 | 232 | 1.7 | 3.5 | 0.00 | 0.00 | 0.00 | 69 | 1012.1 |
| 20260509155748 | 61 | 211 | 0.0 | 0.9 | 0.00 | 0.00 | 0.00 | 70 | 1012.0 |
| 20260509155245 | 61 | 215 | 1.7 | 1.7 | 0.00 | 0.00 | 0.00 | 69 | 1011.8 |
| 20260509154741 | 61 | 206 | 0.0 | 1.7 | 0.00 | 0.00 | 0.00 | 71 | 1011.8 |
| 20260509154238 | 61 | 203 | 1.7 | 2.6 | 0.00 | 0.00 | 0.00 | 70 | 1011.7 |